FW8718 Weather Reports


time (UTC)temp
C
wind
direction
speed
KPH
gust
KPH
rain 1hr
cm
rain 24hr
cm
rain mn
cm
humidity
%
barometer
mb
20260507183028 15 281 3.2 6.4 0.00 0.36 0.00 35 1020.7
20260507182513 13 272 1.6 8.0 0.00 0.36 0.00 38 1021.0
20260507182013 13 284 3.2 8.0 0.00 0.36 0.00 33 1021.0
20260507181532 13 326 1.6 9.7 0.00 0.36 0.00 36 1021.1
20260507181013 13 290 1.6 6.4 0.00 0.36 0.00 33 1021.0
20260507180513 13 243 0.0 9.7 0.00 0.36 0.00 35 1020.9
20260507180031 13 233 1.6 11.3 0.00 0.36 0.00 33 1020.9
20260507175512 13 302 3.2 8.0 0.00 0.56 0.00 31 1020.8
20260507175016 13 34 1.6 8.0 0.00 0.56 0.00 32 1021.0
20260507174540 13 41 1.6 8.0 0.00 0.56 0.00 32 1021.0
20260507174014 13 86 3.2 9.7 0.00 0.56 0.00 29 1021.0
20260507173514 13 309 4.8 12.9 0.00 0.56 0.00 35 1021.3
20260507173035 13 215 4.8 17.7 0.00 0.56 0.00 36 1021.3
20260507172512 13 228 4.8 17.7 0.00 0.56 0.00 36 1021.5
20260507172012 13 210 1.6 6.4 0.00 0.56 0.00 35 1021.6
20260507171533 13 223 3.2 9.7 0.00 0.56 0.00 41 1021.7
20260507171013 13 295 3.2 9.7 0.00 0.56 0.00 42 1021.8
20260507170513 12 317 3.2 8.0 0.00 0.56 0.00 36 1021.8
20260507170040 12 331 1.6 11.3 0.00 0.56 0.00 36 1021.8
20260507165514 12 298 3.2 11.3 0.00 0.56 0.00 36 1021.8
20260507165012 12 269 3.2 8.0 0.00 0.56 0.00 37 1021.8
20260507164527 12 327 4.8 9.7 0.00 0.56 0.00 36 1021.9
20260507164015 12 327 4.8 8.0 0.00 0.56 0.00 34 1021.9
20260507163512 12 313 3.2 8.0 0.00 0.56 0.00 36 1021.9
20260507163027 12 302 1.6 8.0 0.00 0.56 0.00 44 1021.9
20260507162512 12 292 1.6 9.7 0.00 0.56 0.00 37 1021.9
20260507162012 12 271 1.6 9.7 0.00 0.56 0.00 35 1021.8
20260507161532 12 5 3.2 8.0 0.00 0.56 0.00 39 1021.9
20260507161013 11 303 3.2 12.9 0.00 0.56 0.00 47 1021.7
20260507160513 11 341 1.6 9.7 0.00 0.56 0.00 44 1021.9
20260507160032 11 239 3.2 11.3 0.00 0.56 0.00 43 1021.8
20260507155512 10 280 3.2 11.3 0.00 0.56 0.00 42 1021.9
20260507155010 10 320 1.6 11.3 0.00 0.56 0.00 47 1021.8
20260507154532 10 334 1.6 8.0 0.00 0.56 0.00 44 1021.9
20260507154014 10 201 1.6 16.1 0.00 0.56 0.00 47 1021.9
20260507153512 10 267 4.8 16.1 0.00 0.56 0.00 48 1021.9
20260507153029 9 236 0.0 11.3 0.00 0.56 0.00 50 1021.8
20260507152518 9 249 3.2 11.3 0.00 0.56 0.00 48 1022.0
20260507152015 8 252 3.2 11.3 0.00 0.56 0.00 54 1021.8
20260507151531 8 269 1.6 11.3 0.00 0.56 0.00 53 1021.8
20260507151012 8 273 3.2 12.9 0.00 0.56 0.00 54 1021.8
20260507150513 7 5 3.2 12.9 0.00 0.56 0.00 54 1021.8
20260507150041 7 196 1.6 12.9 0.00 0.56 0.00 58 1021.9
20260507145512 7 302 4.8 12.9 0.00 0.56 0.00 55 1021.8
20260507145013 7 240 3.2 14.5 0.00 0.56 0.00 57 1021.8
20260507144530 7 314 4.8 14.5 0.00 0.56 0.00 57 1022.0
20260507144013 7 333 4.8 12.9 0.00 0.56 0.00 56 1022.0
20260507143511 6 255 3.2 14.5 0.00 0.56 0.00 58 1022.0
20260507143034 6 337 1.6 14.5 0.00 0.56 0.00 59 1021.9
20260507142512 6 232 3.2 16.1 0.00 0.56 0.00 58 1021.8
20260507142013 6 268 1.6 14.5 0.00 0.56 0.00 59 1021.8
20260507141533 6 274 3.2 14.5 0.00 0.56 0.00 59 1022.0
20260507141014 5 281 4.8 14.5 0.00 0.56 0.00 58 1022.0
20260507140514 5 307 0.0 9.7 0.00 0.56 0.00 62 1021.8
20260507140032 5 208 1.6 9.7 0.00 0.56 0.00 60 1021.9
20260507135517 5 348 1.6 6.4 0.00 0.56 0.00 58 1021.8
20260507135017 5 284 0.0 6.4 0.00 0.56 0.00 59 1021.6
20260507134531 4 269 0.0 6.4 0.00 0.56 0.00 59 1021.8
20260507134015 3 271 0.0 11.3 0.00 0.56 0.00 61 1021.6
20260507133512 3 322 0.0 11.3 0.00 0.56 0.00 62 1021.8
20260507133030 3 287 0.0 6.4 0.00 0.56 0.00 61 1021.6
20260507132514 2 292 0.0 3.2 0.00 0.56 0.00 63 1021.8
20260507132011 2 292 0.0 3.2 0.00 0.56 0.00 63 1021.8
20260507131536 1 285 0.0 3.2 0.00 0.56 0.00 67 1021.8
20260507131011 1 285 0.0 4.8 0.00 0.56 0.00 68 1021.8
20260507130515 0 283 0.0 4.8 0.00 0.56 0.00 70 1021.9
20260507130031 0 290 0.0 3.2 0.00 0.56 0.00 70 1021.9
20260507125512 0 304 0.0 3.2 0.00 0.56 0.00 72 1021.8
20260507125014 0 304 0.0 3.2 0.00 0.56 0.00 71 1021.6
20260507124531 0 304 0.0 1.6 0.00 0.56 0.00 73 1021.6
20260507124016 -1 190 0.0 6.4 0.00 0.56 0.00 74 1021.5
20260507123511 -1 284 0.0 6.4 0.00 0.56 0.00 74 1021.5
20260507123035 -1 283 0.0 6.4 0.00 0.56 0.00 75 1021.4
20260507122511 -2 283 0.0 6.4 0.00 0.56 0.00 75 1021.5
20260507122014 -2 286 0.0 3.2 0.00 0.56 0.00 77 1021.3
20260507121535 -2 294 0.0 0.0 0.00 0.56 0.00 78 1021.5
20260507121013 -2 294 0.0 0.0 0.00 0.56 0.00 78 1021.3
20260507120514 -2 294 0.0 0.0 0.00 0.56 0.00 76 1021.3
20260507120041 -1 294 0.0 1.6 0.00 0.56 0.00 76 1021.3
20260507115514 -1 294 0.0 1.6 0.00 0.56 0.00 75 1021.3
20260507115012 -1 294 0.0 1.6 0.00 0.56 0.00 75 1021.4
20260507114532 -1 294 0.0 3.2 0.00 0.56 0.00 76 1021.4
20260507114013 -1 294 0.0 3.2 0.00 0.56 0.00 75 1021.5
20260507113513 -2 294 0.0 4.8 0.00 0.56 0.00 75 1021.3
20260507113034 -2 294 0.0 4.8 0.00 0.56 0.00 75 1021.4
20260507112513 -2 151 0.0 0.0 0.00 0.56 0.00 77 1021.3
20260507112014 -2 151 0.0 1.6 0.00 0.56 0.00 77 1021.3
20260507111535 -2 151 0.0 1.6 0.00 0.56 0.00 78 1021.4
20260507111013 -2 151 0.0 0.0 0.00 0.56 0.00 79 1021.4
20260507110512 -2 151 0.0 0.0 0.00 0.56 0.00 79 1021.4
20260507110036 -2 151 0.0 0.0 0.00 0.56 0.00 80 1021.3
20260507105515 -2 151 0.0 0.0 0.00 0.56 0.00 80 1021.3
20260507105012 -2 151 0.0 0.0 0.00 0.56 0.00 80 1021.3
20260507104536 -2 151 0.0 1.6 0.00 0.56 0.00 80 1021.2
20260507104014 -2 151 0.0 1.6 0.00 0.56 0.00 82 1021.3
20260507103515 -3 151 0.0 3.2 0.00 0.56 0.00 84 1021.1
20260507103034 -3 151 0.0 3.2 0.00 0.56 0.00 86 1021.3
20260507102517 -3 151 0.0 1.6 0.00 0.56 0.00 87 1021.4
20260507102014 -3 151 0.0 0.0 0.00 0.56 0.00 88 1021.5
20260507101538 -4 151 0.0 0.0 0.00 0.56 0.00 88 1021.6
20260507101011 -4 151 0.0 0.0 0.00 0.56 0.00 89 1021.7
20260507100511 -4 151 0.0 0.0 0.00 0.56 0.00 89 1021.7
20260507100040 -4 151 0.0 0.0 0.00 0.56 0.00 89 1021.7
20260507095515 -4 151 0.0 0.0 0.00 0.56 0.00 89 1021.7
20260507095013 -4 151 0.0 3.2 0.00 0.56 0.00 90 1021.6
20260507094533 -4 151 0.0 3.2 0.00 0.56 0.00 90 1021.6
20260507094012 -4 151 0.0 0.0 0.00 0.56 0.00 90 1021.4
20260507093512 -4 151 0.0 0.0 0.00 0.56 0.00 90 1021.5
20260507093035 -4 151 0.0 0.0 0.00 0.56 0.00 91 1021.6
20260507092515 -4 151 0.0 1.6 0.00 0.56 0.00 91 1021.5
20260507092012 -4 151 0.0 1.6 0.00 0.56 0.00 91 1021.6
20260507091534 -4 151 0.0 0.0 0.00 0.56 0.00 91 1021.7
20260507091014 -4 151 0.0 3.2 0.00 0.56 0.00 92 1021.8
20260507090515 -4 151 0.0 3.2 0.00 0.56 0.00 92 1021.8
20260507090036 -4 151 0.0 3.2 0.00 0.56 0.00 92 1021.8
20260507085511 -4 151 0.0 0.0 0.00 0.56 0.00 92 1021.9
20260507085012 -4 151 0.0 0.0 0.00 0.56 0.00 92 1021.9
20260507084534 -4 151 0.0 0.0 0.00 0.56 0.00 93 1022.0
20260507084012 -4 151 0.0 3.2 0.00 0.56 0.00 93 1021.8
20260507083514 -4 151 0.0 3.2 0.00 0.56 0.00 93 1022.0
20260507083030 -5 151 0.0 1.6 0.00 0.56 0.00 93 1021.9
20260507082514 -5 151 0.0 1.6 0.00 0.56 0.00 92 1022.1
20260507082016 -5 151 0.0 0.0 0.00 0.56 0.00 93 1022.0
20260507081543 -5 151 0.0 0.0 0.00 0.56 0.00 93 1022.1
20260507081015 -5 151 0.0 0.0 0.00 0.56 0.00 93 1022.2
20260507080516 -4 151 0.0 0.0 0.00 0.56 0.00 93 1022.3
20260507080034 -4 151 0.0 0.0 0.00 0.56 0.00 93 1022.3
20260507075519 -4 151 0.0 0.0 0.00 0.56 0.00 93 1022.2
20260507075011 -5 151 0.0 0.0 0.00 0.56 0.00 93 1022.3
20260507074550 -5 151 0.0 0.0 0.00 0.56 0.00 93 1022.1
20260507074014 -5 151 0.0 0.0 0.00 0.56 0.00 93 1022.3
20260507073516 -5 151 0.0 0.0 0.00 0.56 0.00 93 1022.4
20260507073031 -5 151 0.0 1.6 0.00 0.56 0.00 92 1022.3
20260507072518 -5 151 0.0 1.6 0.00 0.56 0.00 92 1022.3
20260507072012 -5 151 0.0 0.0 0.00 0.56 0.00 92 1022.3
20260507071534 -5 151 0.0 1.6 0.00 0.56 0.00 92 1022.3
20260507071014 -5 151 0.0 1.6 0.00 0.56 0.00 92 1022.3
20260507070519 -4 151 0.0 0.0 0.00 0.56 0.00 92 1022.4
20260507070035 -4 151 0.0 0.0 0.00 0.56 0.00 92 1022.4
20260507065512 -4 151 0.0 0.0 0.00 0.56 0.00 92 1022.3
20260507065011 -4 151 0.0 0.0 0.00 0.56 0.00 92 1022.2
20260507064531 -4 151 0.0 0.0 0.00 0.56 0.00 92 1022.3
20260507064013 -4 151 0.0 0.0 0.00 0.56 0.00 92 1022.3
20260507063515 -3 151 0.0 0.0 0.00 0.56 0.00 92 1022.3
20260507063032 -3 151 0.0 1.6 0.00 0.56 0.00 92 1022.2
20260507062514 -3 151 0.0 1.6 0.00 0.56 0.00 92 1022.1
20260507062014 -3 151 0.0 0.0 0.00 0.56 0.00 92 1022.2
20260507061536 -3 151 0.0 0.0 0.00 0.56 0.00 92 1022.1
20260507061012 -3 151 0.0 0.0 0.00 0.56 0.00 92 1022.1
20260507060512 -3 151 0.0 0.0 0.00 0.56 0.00 92 1022.2
20260507060036 -2 151 0.0 0.0 0.00 0.56 0.00 93 1022.2
20260507055513 -2 151 0.0 0.0 0.00 0.56 0.56 93 1022.0
20260507055014 -2 151 0.0 0.0 0.00 0.56 0.56 93 1022.0
20260507054538 -2 151 0.0 0.0 0.00 0.56 0.56 93 1021.9
20260507054012 -2 151 0.0 0.0 0.00 0.56 0.56 93 1021.8
20260507053513 -2 151 0.0 0.0 0.00 0.56 0.56 93 1021.9
20260507053035 -2 151 0.0 0.0 0.00 0.56 0.56 93 1022.0
20260507052514 -2 151 0.0 1.6 0.00 0.56 0.56 93 1021.9
20260507052014 -2 151 0.0 3.2 0.00 0.56 0.56 93 1021.9
20260507051532 -2 151 0.0 4.8 0.00 0.56 0.56 92 1021.9
20260507051022 -2 148 1.6 4.8 0.00 0.56 0.56 92 1021.7
20260507050513 -2 138 0.0 4.8 0.00 0.56 0.56 93 1021.8
20260507050033 -2 169 0.0 1.6 0.00 0.56 0.56 93 1021.8
20260507045513 -2 169 0.0 4.8 0.00 0.56 0.56 93 1021.8
20260507045014 -2 169 1.6 4.8 0.00 0.56 0.56 92 1021.8
20260507044539 -2 168 0.0 8.0 0.00 0.56 0.56 92 1021.9
20260507044015 -2 192 1.6 8.0 0.00 0.56 0.56 92 1021.8
20260507043512 -2 197 1.6 6.4 0.00 0.56 0.56 92 1021.7
20260507043035 -2 178 1.6 4.8 0.00 0.56 0.56 92 1021.8
20260507042515 -2 169 0.0 9.7 0.00 0.56 0.56 92 1021.8
20260507042012 -2 166 1.6 9.7 0.00 0.56 0.56 92 1022.0
20260507041534 -2 179 0.0 0.0 0.00 0.56 0.56 91 1022.0
20260507041013 -2 179 0.0 0.0 0.00 0.56 0.56 91 1022.0
20260507040513 -2 179 0.0 0.0 0.00 0.56 0.56 91 1022.0
20260507040039 -2 179 0.0 0.0 0.00 0.56 0.56 91 1022.0
20260507035513 -2 184 0.0 0.0 0.00 0.56 0.56 91 1021.9
20260507035014 -2 176 0.0 1.6 0.00 0.56 0.56 91 1022.0
20260507034533 -2 176 0.0 1.6 0.00 0.56 0.56 91 1022.0
20260507034012 -2 176 0.0 3.2 0.00 0.56 0.56 90 1022.0
20260507033514 -2 176 0.0 3.2 0.00 0.56 0.56 90 1021.9
20260507033034 -2 171 0.0 1.6 0.00 0.56 0.56 90 1021.8
20260507032512 -2 171 0.0 3.2 0.00 0.56 0.56 90 1021.9
20260507032018 -2 171 0.0 3.2 0.00 0.56 0.56 90 1021.7
20260507031539 -2 171 0.0 3.2 0.00 0.56 0.56 90 1021.7
20260507031015 -2 171 0.0 4.8 0.00 0.56 0.56 89 1021.5
20260507030512 -2 171 0.0 4.8 0.00 0.56 0.56 89 1021.5
20260507030049 -2 219 0.0 4.8 0.00 0.56 0.56 89 1021.4
20260507025516 -2 219 0.0 4.8 0.00 0.56 0.56 89 1021.4
20260507025012 -1 229 0.0 3.2 0.00 0.56 0.56 88 1021.4
20260507024541 -1 229 0.0 8.0 0.00 0.56 0.56 88 1021.4
20260507024016 -1 230 3.2 8.0 0.00 0.56 0.56 88 1021.4
20260507023514 -1 218 1.6 6.4 0.00 0.56 0.56 88 1021.3
20260507023036 -1 213 0.0 4.8 0.00 0.56 0.56 87 1021.3
20260507022513 -1 213 0.0 3.2 0.00 0.56 0.56 87 1021.2
20260507022013 -1 215 0.0 3.2 0.00 0.56 0.56 87 1021.1
20260507021536 -1 216 0.0 4.8 0.00 0.56 0.56 86 1021.0
20260507021013 -1 206 1.6 8.0 0.00 0.56 0.56 86 1021.0
20260507020516 -1 251 0.0 8.0 0.00 0.56 0.56 86 1021.0
20260507020035 0 171 0.0 6.4 0.00 0.56 0.56 85 1020.9
20260507015512 0 188 0.0 6.4 0.00 0.56 0.56 85 1020.8
20260507015015 0 225 1.6 8.0 0.00 0.56 0.56 84 1020.7
20260507014545 0 207 0.0 8.0 0.00 0.56 0.56 84 1020.8
20260507014013 0 223 0.0 6.4 0.00 0.56 0.56 84 1020.8
20260507013513 0 211 0.0 9.7 0.00 0.56 0.56 83 1020.7
20260507013035 0 223 0.0 9.7 0.00 0.56 0.56 82 1020.7
20260507012513 0 234 0.0 11.3 0.00 0.56 0.56 81 1020.9
20260507012017 1 234 4.8 11.3 0.00 0.56 0.56 80 1020.7
20260507011535 1 214 1.6 9.7 0.00 0.56 0.56 79 1020.8
20260507011013 1 225 1.6 11.3 0.00 0.56 0.56 79 1020.8
20260507010512 2 166 6.4 11.3 0.03 0.56 0.56 78 1020.6
20260507010038 2 240 3.2 12.9 0.03 0.56 0.56 79 1020.5
20260507005515 2 229 3.2 11.3 0.03 0.56 0.56 79 1020.5
20260507005017 2 229 3.2 14.5 0.03 0.56 0.56 78 1020.3
20260507004533 2 216 4.8 14.5 0.03 0.56 0.56 78 1020.4
20260507004020 2 136 1.6 12.9 0.03 0.56 0.56 77 1020.3
20260507003513 2 210 3.2 12.9 0.03 0.56 0.56 77 1020.4
20260507003038 2 163 4.8 9.7 0.03 0.56 0.56 77 1020.3
20260507002512 2 228 3.2 16.1 0.03 0.56 0.56 77 1020.3
20260507002014 2 180 4.8 16.1 0.03 0.56 0.56 77 1020.3
20260507001535 2 222 0.0 11.3 0.03 0.56 0.56 79 1020.4
20260507001017 2 242 4.8 12.9 0.03 0.56 0.56 77 1020.5
20260507000512 2 227 1.6 12.9 0.00 0.53 0.53 78 1020.4
20260507000042 2 305 3.2 9.7 0.00 0.53 0.53 79 1020.3
20260506235513 2 278 1.6 12.9 0.00 0.56 0.53 79 1020.3
20260506235015 2 215 3.2 12.9 0.00 0.56 0.53 77 1020.3
20260506234539 2 265 0.0 9.7 0.00 0.56 0.53 76 1020.5
20260506234014 2 204 4.8 12.9 0.00 0.56 0.53 76 1020.6
20260506233514 2 236 3.2 11.3 0.00 0.56 0.53 76 1020.4
20260506233039 2 157 4.8 12.9 0.00 0.56 0.53 78 1020.6
20260506232514 2 224 4.8 9.7 0.00 0.56 0.53 80 1020.5
20260506232016 1 221 0.0 8.0 0.00 0.56 0.53 80 1020.4
20260506231535 1 191 3.2 9.7 0.00 0.56 0.53 78 1020.3
20260506231012 1 214 3.2 8.0 0.00 0.56 0.53 79 1020.3
20260506230515 1 277 0.0 6.4 0.00 0.56 0.53 78 1020.3
20260506230034 1 280 1.6 6.4 0.00 0.56 0.53 78 1020.2
20260506225515 1 280 1.6 4.8 0.00 0.64 0.53 79 1020.3
20260506225012 1 288 0.0 4.8 0.00 0.64 0.53 78 1020.4
20260506224538 1 288 0.0 6.4 0.00 0.64 0.53 76 1020.4
20260506224015 1 294 1.6 8.0 0.00 0.64 0.53 78 1020.5
20260506223515 1 15 1.6 6.4 0.00 0.64 0.53 81 1020.5
20260506223032 1 59 1.6 8.0 0.00 0.64 0.53 79 1020.4
20260506222512 1 5 0.0 6.4 0.00 0.64 0.53 83 1020.4
20260506222013 0 15 1.6 4.8 0.00 0.64 0.53 85 1020.4
20260506221539 0 28 0.0 6.4 0.03 0.64 0.53 83 1020.5
20260506221019 0 311 1.6 9.7 0.03 0.64 0.53 83 1020.5
20260506220515 0 5 3.2 11.3 0.03 0.64 0.53 84 1020.6
20260506220038 0 304 3.2 9.7 0.03 0.64 0.53 84 1020.6
20260506215516 0 15 1.6 8.0 0.03 0.66 0.53 83 1020.7
20260506215016 0 347 1.6 12.9 0.03 0.66 0.53 84 1020.7
20260506214536 0 75 4.8 8.0 0.03 0.66 0.53 85 1020.6
20260506214016 0 9 1.6 12.9 0.05 0.66 0.53 85 1020.5
20260506213515 0 17 4.8 16.1 0.05 0.66 0.53 85 1020.6
20260506213040 0 76 8.0 16.1 0.05 0.66 0.53 85 1020.4
20260506212515 0 336 1.6 8.0 0.05 0.66 0.53 88 1020.5
20260506212016 0 347 3.2 11.3 0.05 0.66 0.53 88 1020.7
20260506211538 0 52 3.2 16.1 0.05 0.64 0.48 86 1020.8
20260506211015 0 306 4.8 16.1 0.08 0.64 0.48 85 1020.9
20260506210520 0 56 6.4 16.1 0.08 0.64 0.48 85 1020.9
20260506210049 0 57 4.8 16.1 0.08 0.64 0.48 87 1020.8
20260506205513 0 38 4.8 14.5 0.08 0.64 0.48 86 1020.8
20260506205016 0 50 4.8 14.5 0.08 0.64 0.48 86 1020.7
20260506204543 0 55 4.8 14.5 0.10 0.64 0.48 85 1020.7
20260506204013 0 85 3.2 14.5 0.08 0.61 0.48 85 1020.8
20260506203518 0 360 3.2 14.5 0.08 0.61 0.48 86 1020.9
20260506203041 0 53 3.2 12.9 0.08 0.61 0.48 86 1020.9
20260506202515 0 11 4.8 12.9 0.08 0.61 0.48 86 1020.8
20260506202017 0 309 4.8 9.7 0.10 0.61 0.48 86 1020.7
20260506201544 0 11 4.8 14.5 0.08 0.56 0.46 87 1020.8
20260506201013 0 78 3.2 14.5 0.05 0.56 0.43 87 1021.0
20260506200512 0 40 1.6 9.7 0.08 0.56 0.43 88 1020.9
20260506200030 -1 55 3.2 11.3 0.08 0.56 0.43 88 1020.9
20260506195510 -1 78 1.6 16.1 0.08 0.61 0.43 87 1020.9
20260506195010 -1 17 4.8 16.1 0.10 0.61 0.43 87 1020.9
20260506194526 -1 34 3.2 16.1 0.08 0.56 0.41 87 1020.9
20260506194010 -1 45 4.8 16.1 0.10 0.56 0.41 86 1020.8
20260506193511 0 39 3.2 12.9 0.10 0.56 0.41 86 1020.6
20260506193031 0 269 3.2 12.9 0.10 0.56 0.41 85 1020.6
20260506192514 0 15 3.2 16.1 0.10 0.56 0.41 86 1020.5
20260506192013 0 5 3.2 16.1 0.10 0.56 0.36 85 1020.3
20260506191528 0 355 4.8 14.5 0.10 0.56 0.36 86 1020.6
20260506191010 0 68 4.8 14.5 0.15 0.56 0.36 86 1020.6
20260506190513 0 351 3.2 17.7 0.10 0.53 0.36 85 1020.6
20260506190030 0 338 4.8 17.7 0.15 0.53 0.36 86 1020.5
20260506185509 0 33 3.2 17.7 0.15 0.64 0.36 85 1020.6
20260506185009 0 68 6.4 17.7 0.15 0.61 0.33 85 1020.6
20260506184527 0 66 1.6 14.5 0.15 0.61 0.33 86 1020.6
20260506184011 0 17 4.8 14.5 0.15 0.56 0.30 86 1020.5
20260506183513 0 47 1.6 9.7 0.15 0.56 0.30 86 1020.6